Location: Unspecified
(0.0000°N, 0.0000°E)
Time: 09:27:02
(UTC+00:00)

COSMOS 2251 DEB - Pass Details

Date: 18 February 2026
Orbit: 744 x 1394 km, 73.9° (Epoch: 9 March)

Event Time Altitude Azimuth Distance (km) Brightness Sun altitude
Exits shadow 04:16:47 50° 239° (WSW) 1,609 ? -28.6°
Drops below altitude 10° 04:24:05 10° 183° (S) 3,444 ? -26.9°
Sets 04:27:08 0° 178° (S) 4,446 ? -26.1°
